Tracking 22881 objects as of 19-Apr-2021
HD Live streaming from Space Station
objects crossing your sky now

STARLINK-1486

Track STARLINK-1486 now!
10-day predictions
STARLINK-1486 is classified as:


NORAD ID: 45757
Int'l Code: 2020-038AD
Perigee: 553.3 km
Apogee: 555.4 km
Inclination: 53.1 °
Period: 95.6 minutes
Semi major axis: 6925 km
RCS: Unknown
Launch date: June 13, 2020
Source: United States (US)
Launch site: AIR FORCE EASTERN TEST RANGE (AFETR)
aabbcc
Your satellite tracking list
Your tracking list is empty




NASA's NSSDC Master Catalog

Two Line Element Set (TLE):
1 45757U 20038AD  21109.01939885 -.00000559  00000-0 -18644-4 0  9995
2 45757  53.0566 312.7961 0001474   7.4566 352.6444 15.06403575 48442
Source of the keplerian elements: AFSPC